TimeCDT,TemperatureF,Dew PointF,Humidity,Sea Level PressureIn,VisibilityMPH,Wind Direction,Wind SpeedMPH,Gust SpeedMPH,PrecipitationIn,Events,Conditions,WindDirDegrees,DateUTC
12:13 AM,55.4,53.6,94,29.80,5.0,West,8.1,-,N/A,,Mostly Cloudy,270,2012-10-24 05:13:00
12:34 AM,55.4,53.6,94,29.80,7.0,NW,6.9,-,N/A,,Overcast,310,2012-10-24 05:34:00
12:53 AM,55.4,53.6,94,29.81,5.0,NW,9.2,-,N/A,,Overcast,320,2012-10-24 05:53:00
1:13 AM,55.4,51.8,88,29.82,10.0,NW,12.7,-,N/A,,Overcast,310,2012-10-24 06:13:00
1:33 AM,55.4,50.0,82,29.84,10.0,NW,20.7,-,N/A,,Overcast,320,2012-10-24 06:33:00
1:53 AM,53.6,48.2,82,29.84,10.0,NW,15.0,-,N/A,,Overcast,320,2012-10-24 06:53:00
2:13 AM,51.8,48.2,88,29.84,10.0,NW,15.0,-,N/A,,Overcast,320,2012-10-24 07:13:00
2:33 AM,51.8,46.4,82,29.85,10.0,NW,13.8,-,N/A,,Mostly Cloudy,320,2012-10-24 07:33:00
2:53 AM,48.2,46.4,93,29.85,10.0,NW,10.4,-,N/A,,Scattered Clouds,320,2012-10-24 07:53:00
3:13 AM,48.2,46.4,93,29.85,10.0,NW,9.2,-,N/A,,Clear,310,2012-10-24 08:13:00
3:34 AM,48.2,44.6,87,29.85,10.0,NW,6.9,-,N/A,,Clear,310,2012-10-24 08:34:00
3:54 AM,46.4,44.6,93,29.85,10.0,NW,6.9,-,N/A,,Scattered Clouds,320,2012-10-24 08:54:00
4:13 AM,46.4,42.8,87,29.84,7.0,NW,5.8,-,N/A,,Scattered Clouds,320,2012-10-24 09:13:00
4:33 AM,44.6,42.8,93,29.85,7.0,NW,5.8,-,N/A,,Clear,310,2012-10-24 09:33:00
4:53 AM,44.6,42.8,93,29.85,5.0,Calm,Calm,-,N/A,,Scattered Clouds,0,2012-10-24 09:53:00
5:13 AM,44.6,44.6,100,29.87,5.0,WNW,5.8,-,N/A,,Mostly Cloudy,290,2012-10-24 10:13:00
5:33 AM,46.4,44.6,93,29.88,7.0,NW,6.9,-,N/A,,Overcast,310,2012-10-24 10:33:00
5:54 AM,48.2,46.4,93,29.88,10.0,NW,8.1,-,N/A,,Overcast,320,2012-10-24 10:54:00
6:13 AM,48.2,46.4,93,29.88,7.0,NNW,8.1,-,N/A,,Overcast,330,2012-10-24 11:13:00
6:33 AM,48.2,46.4,93,29.90,10.0,NW,9.2,-,N/A,,Overcast,320,2012-10-24 11:33:00
6:53 AM,48.2,44.6,87,29.90,10.0,NNW,8.1,-,N/A,,Overcast,330,2012-10-24 11:53:00
7:13 AM,48.2,44.6,87,29.90,10.0,NNW,11.5,-,N/A,,Overcast,330,2012-10-24 12:13:00
7:34 AM,46.4,44.6,93,29.91,10.0,NNW,12.7,-,N/A,,Overcast,330,2012-10-24 12:34:00
7:53 AM,46.4,42.8,87,29.91,10.0,NNW,11.5,-,N/A,,Overcast,330,2012-10-24 12:53:00
8:14 AM,46.4,42.8,87,29.91,10.0,NNW,11.5,-,N/A,,Overcast,340,2012-10-24 13:14:00
8:53 AM,44.6,39.2,81,29.90,10.0,North,10.4,-,N/A,,Mostly Cloudy,350,2012-10-24 13:53:00
9:13 AM,44.6,39.2,81,29.89,10.0,North,15.0,-,N/A,,Clear,360,2012-10-24 14:13:00
9:33 AM,46.4,39.2,76,29.89,10.0,North,15.0,-,N/A,,Clear,350,2012-10-24 14:33:00
9:53 AM,46.4,39.2,76,29.89,10.0,North,13.8,-,N/A,,Clear,360,2012-10-24 14:53:00
10:13 AM,46.4,39.2,76,29.89,10.0,North,20.7,-,N/A,,Clear,360,2012-10-24 15:13:00
10:33 AM,46.4,39.2,76,29.90,10.0,North,16.1,19.6,N/A,,Clear,360,2012-10-24 15:33:00
11:13 AM,48.2,39.2,71,29.92,10.0,North,12.7,-,N/A,,Scattered Clouds,350,2012-10-24 16:13:00
11:33 AM,48.2,41.0,76,29.93,10.0,North,8.1,-,N/A,,Mostly Cloudy,350,2012-10-24 16:33:00
11:53 AM,48.2,41.0,76,29.92,10.0,North,9.2,-,N/A,,Mostly Cloudy,350,2012-10-24 16:53:00
12:14 PM,50.0,41.0,71,29.92,10.0,NNW,10.4,-,N/A,,Mostly Cloudy,340,2012-10-24 17:14:00
12:34 PM,48.2,39.2,71,29.92,10.0,NNW,15.0,-,N/A,,Overcast,330,2012-10-24 17:34:00
12:53 PM,50.0,39.2,66,29.91,10.0,North,16.1,-,N/A,,Mostly Cloudy,350,2012-10-24 17:53:00
1:33 PM,48.2,39.2,71,29.89,10.0,NNW,23.0,27.6,N/A,,Mostly Cloudy,330,2012-10-24 18:33:00
1:53 PM,48.2,37.4,66,29.88,10.0,NNW,21.9,27.6,N/A,,Mostly Cloudy,330,2012-10-24 18:53:00
2:13 PM,48.2,37.4,66,29.88,10.0,NNW,18.4,26.5,N/A,,Mostly Cloudy,330,2012-10-24 19:13:00
2:33 PM,48.2,39.2,71,29.88,10.0,North,21.9,-,N/A,,Overcast,350,2012-10-24 19:33:00
2:53 PM,48.2,39.2,71,29.88,10.0,NNW,21.9,-,N/A,,Mostly Cloudy,340,2012-10-24 19:53:00
3:13 PM,48.2,37.4,66,29.88,10.0,NNW,20.7,25.3,N/A,,Mostly Cloudy,340,2012-10-24 20:13:00
3:33 PM,48.2,39.2,71,29.88,10.0,NNW,18.4,24.2,N/A,,Scattered Clouds,340,2012-10-24 20:33:00
3:53 PM,46.4,37.4,71,29.88,10.0,NNW,17.3,-,N/A,,Scattered Clouds,330,2012-10-24 20:53:00
4:13 PM,46.4,37.4,71,29.88,10.0,NNW,20.7,26.5,N/A,,Mostly Cloudy,340,2012-10-24 21:13:00
4:34 PM,46.4,37.4,71,29.87,10.0,North,23.0,-,N/A,,Mostly Cloudy,350,2012-10-24 21:34:00
4:54 PM,46.4,37.4,71,29.87,10.0,North,18.4,24.2,N/A,,Overcast,360,2012-10-24 21:54:00
5:33 PM,44.6,37.4,76,29.88,10.0,NNW,17.3,-,N/A,,Overcast,340,2012-10-24 22:33:00
5:54 PM,44.6,37.4,76,29.87,10.0,North,16.1,-,N/A,,Overcast,350,2012-10-24 22:54:00
6:13 PM,42.8,37.4,81,29.87,10.0,NNW,17.3,20.7,N/A,,Overcast,340,2012-10-24 23:13:00
6:33 PM,42.8,37.4,81,29.87,10.0,NNW,16.1,21.9,N/A,,Overcast,340,2012-10-24 23:33:00
6:53 PM,42.8,37.4,81,29.88,10.0,North,13.8,21.9,N/A,,Overcast,350,2012-10-24 23:53:00
7:33 PM,42.8,37.4,81,29.90,10.0,NNW,17.3,21.9,N/A,,Overcast,340,2012-10-25 00:33:00
7:54 PM,42.8,37.4,81,29.92,10.0,NNW,17.3,20.7,N/A,,Overcast,340,2012-10-25 00:54:00
8:13 PM,42.8,37.4,81,29.91,10.0,NNW,16.1,-,N/A,,Overcast,340,2012-10-25 01:13:00
8:33 PM,42.8,37.4,81,29.91,10.0,North,18.4,23.0,N/A,,Overcast,350,2012-10-25 01:33:00
8:54 PM,42.8,37.4,81,29.92,10.0,NNW,18.4,24.2,N/A,,Overcast,340,2012-10-25 01:54:00
9:13 PM,42.8,37.4,81,29.93,10.0,NNW,21.9,27.6,N/A,,Overcast,330,2012-10-25 02:13:00
9:34 PM,41.0,37.4,87,29.94,10.0,NNW,17.3,25.3,N/A,,Overcast,340,2012-10-25 02:34:00
9:54 PM,41.0,35.6,81,29.93,10.0,NNW,19.6,27.6,N/A,,Overcast,340,2012-10-25 02:54:00
10:13 PM,41.0,35.6,81,29.94,10.0,North,23.0,29.9,N/A,,Overcast,350,2012-10-25 03:13:00
10:33 PM,39.2,35.6,87,29.93,10.0,North,23.0,29.9,N/A,,Overcast,350,2012-10-25 03:33:00
11:13 PM,39.2,35.6,87,29.92,10.0,North,18.4,26.5,N/A,,Overcast,350,2012-10-25 04:13:00
11:33 PM,39.2,35.6,87,29.91,10.0,North,19.6,24.2,N/A,,Overcast,350,2012-10-25 04:33:00
11:53 PM,39.2,35.6,87,29.91,10.0,North,19.6,26.5,N/A,,Overcast,350,2012-10-25 04:53:00